This demonstration page uses our WeatherBlox Daily Observations layout. Learn more.

Left ArrowRight Arrow

41.86663, -103.66717

Hourly Observations for March 27, 2021

Temp ( °F °C ) Dew Point ( °F °C ) Humidity (%) Winds ( mph kmh ) Pressure ( in mb ) Visibility ( mi km ) Precip ( " mm )
12:08 am 00:08 Mostly Clear with Mist and Fog 30 -1 30 -1 100 100 N 8 13 30.08 1019 2 3.21868 0 0
12:16 am 00:16 Mostly Clear with Mist and Fog 32 0 32 0 100 100 NNE 7 11 30.06 1018 6 9.65604 0 0
12:53 am 00:53 Mostly Clear with Mist and Fog 32 0 32 0 100 100 VRB 3 6 29.99 1016 6 9.65604 0 0
1:01 am 01:01 Partly Cloudy with Mist and Fog 30 -1 N/A N/A Calm 30.08 1019 1.5 2.41401 0 0
1:05 am 01:05 Mostly Cloudy with Freezing Fog 30 -1 N/A N/A Calm 30.08 1019 0.5 0.80467 0 0
1:14 am 01:14 Mostly Cloudy with Freezing Fog 30 -1 N/A N/A Calm 30.08 1019 0.25 0.402335 0 0
1:23 am 01:23 Partly Cloudy with Freezing Fog 30 -1 N/A N/A Calm 30.09 1019 0.5 0.80467 0 0
1:37 am 01:37 Mostly Cloudy with Mist and Fog 32 0 N/A N/A Calm 30.07 1018 2 3.21868 0 0
1:45 am 01:45 Mostly Cloudy with Mist and Fog 30 -1 N/A N/A Calm 30.09 1019 0.75 1.207005 0 0
1:53 am 01:53 Cloudy with Fog 32 0 N/A N/A Calm 30 1016 0.5 0.80467 0 0
2:03 am 02:03 Cloudy with Freezing Fog 30 -1 N/A N/A Calm 30.09 1019 0.5 0.80467 0 0
2:17 am 02:17 Cloudy with Mist and Fog 30 -1 N/A N/A WNW 5 7 30.09 1019 1 1.60934 0 0
2:22 am 02:22 Cloudy with Mist and Fog 30 -1 N/A N/A WNW 6 9 30.1 1019 0.75 1.207005 0 0
2:30 am 02:30 Cloudy with Mist and Fog 30 -1 N/A N/A NW 5 7 30.09 1019 1.75 2.816345 0 0
2:32 am 02:32 Mostly Cloudy with Mist and Fog 30 -1 N/A N/A NW 5 7 30.1 1019 3 4.82802 0 0
2:53 am 02:53 Mostly Cloudy with Haze 30 -1 N/A N/A NW 5 7 30.03 1017 6 9.65604 0 0
3:41 am 03:41 Cloudy 32 0 N/A N/A WNW 8 13 30.09 1019 10 16.0934 0 0
3:53 am 03:53 Mostly Cloudy 30 -1 N/A N/A WNW 8 13 30.04 1017 10 16.0934 0 0
4:53 am 04:53 Mostly Cloudy 32 0 N/A N/A W 12 19 30.04 1017 10 16.0934 0 0
5:35 am 05:35 Mostly Cloudy 32 0 N/A N/A WNW 10 17 30.13 1020 10 16.0934 0 0
5:45 am 05:45 Mostly Cloudy 32 0 N/A N/A WNW 10 17 30.14 1021 10 16.0934 0 0
5:53 am 05:53 Mostly Cloudy 32 0 N/A N/A W 10 17 30.07 1018 10 16.0934 0 0
6:07 am 06:07 Mostly Clear 32 0 N/A N/A W 9 15 30.14 1021 10 16.0934 0 0
6:53 am 06:53 Cloudy 32 0 N/A N/A W 8 13 30.1 1019 10 16.0934 0 0
7:53 am 07:53 Cloudy 34 1 N/A N/A WNW 14 22 30.13 1020 10 16.0934 0 0
8:53 am 08:53 Cloudy 38 3.3 37 2.8 97 97 WNW 15 24 30.16 1021 10 16.0934 0 0
9:53 am 09:53 Cloudy 42 5.6 38 3.3 85 85 WNW 18 30 30.17 1022 10 16.0934 0 0
10:53 am 10:53 Cloudy 43 6.1 38 3.3 82 82 NW 20 31 30.2 1023 10 16.0934 0 0
11:53 am 11:53 Cloudy 47 8.3 42 5.6 83 83 NW 20 31 30.19 1022 10 16.0934 0 0
12:53 pm 12:53 Sunny 50 10 46 7.8 86 86 NW 21 33 30.16 1021 10 16.0934 0.001 0.001
1:53 pm 13:53 Partly Cloudy 50 10 46 7.8 86 86 NNW 18 30 30.16 1021 10 16.0934 0.001 0.001
2:23 pm 14:23 Mostly Cloudy 49 9.4 43 6.1 80 80 WNW 17 28 30.11 1020 10 16.0934 0 0
2:53 pm 14:53 Mostly Cloudy 48 8.9 43 6.1 83 83 WNW 18 30 30.18 1022 10 16.0934 0 0
3:11 pm 15:11 Mostly Cloudy 49 9.4 43 6.1 80 80 NNW 21 33 30.11 1020 10 16.0934 0 0
3:53 pm 15:53 Cloudy 49 9.4 43 6.1 80 80 NNW 24 39 30.18 1022 10 16.0934 0 0
4:53 pm 16:53 Mostly Sunny 49 9.4 44 6.7 83 83 NNW 24 39 30.17 1022 10 16.0934 0 0
5:53 pm 17:53 Mostly Cloudy 48 8.9 43 6.1 83 83 NW 22 35 30.19 1023 10 16.0934 0 0
6:53 pm 18:53 Sunny 46 7.8 40 4.4 79 79 NW 13 20 30.21 1023 10 16.0934 0 0
7:35 pm 19:35 Clear 39 3.9 36 2.2 89 89 N 10 17 30.25 1024 10 16.0934 0 0
7:53 pm 19:53 Mostly Clear 38 3.3 35 1.7 89 89 NNW 7 11 30.25 1025 10 16.0934 0 0
8:53 pm 20:53 Clear 35 1.7 32 0 89 89 N 7 11 30.26 1025 10 16.0934 0 0
9:53 pm 21:53 Clear 34 1.1 30 -1.1 85 85 N 8 13 30.27 1025 10 16.0934 0 0
10:53 pm 22:53 Clear 34 1.1 30 -1.1 85 85 NNW 5 7 30.27 1025 10 16.0934 0 0
11:53 pm 23:53 Clear 33 0.6 29 -1.7 85 85 SW 5 7 30.26 1025 10 16.0934 0 0

Powered by AerisWeather